sat.trackr.live / text

‹ back to catalog

EGYPTSAT-A (MISRSAT-A)

NORAD 44047 · 2019-008A

PAYLOAD ACTIVE UNKNOWN

§ Identity

Operator
Country
EGYP
Launch date
2019-02-21
Launch site
TYMSC
Launch vehicle
Mass (kg)
RCS (m²)

External: N2YO · Heavens-Above · Gunter

§ Orbital elements

Epoch: 2026-09-14T22:04:10.966368Z

Period
97.81 min
Inclination
98.0112°
Eccentricity
0.0001054
Mean motion
14.72290887 rev/d
Perigee alt
653.0 km
Apogee alt
654.5 km
Semi-major
7,031.9 km
B*
3.2486e-5
RAAN
321.4403°
Arg perigee
79.2802°
Mean anomaly
280.8524°
Rev number
40,644

§ Raw data

EGYPTSAT-A (MISRSAT-A)1 44047U 19008A   26257.91957137  .00000156  00000+0  32486-4 0  99992 44047  98.0112 321.4403 0001054  79.2802 280.8524 14.72290887406442

JSON: /api/v1/satellites/44047 · /tle

For live sub-satellite position, see the globe view (requires WebGL).

§ Visibility from observer

Set your observer location to see the next 7 days of passes ≥ 10°. The values pass through the URL so the page stays shareable.

No JS? Fill the form by hand. The geolocation button needs JavaScript.

§ Radio — SatNOGS DB

ModeDescriptionDownlinkUplink
FM S-band telemetry 2.270 GHz
FM Telemetry S-Band 2.271 GHz

2 transmitters · refreshed weekly from db.satnogs.org